TimeCST,TemperatureF,Dew PointF,Humidity,Sea Level PressureIn,VisibilityMPH,Wind Direction,Wind SpeedMPH,Gust SpeedMPH,PrecipitationIn,Events,Conditions,WindDirDegrees,DateUTC
12:35 AM,35.6,24.8,65,30.05,7.0,SE,10.4,-,0.00,Snow,Light Snow,130,2013-02-12 06:35:00
12:53 AM,34.0,28.0,79,30.08,3.0,SSE,8.1,-,0.00,Snow,Light Snow,160,2013-02-12 06:53:00
12:56 AM,33.8,28.4,81,30.07,1.8,SSE,6.9,-,0.01,Snow,Light Snow,150,2013-02-12 06:56:00
1:14 AM,33.8,30.2,87,30.07,2.5,SSE,8.1,-,0.02,Snow,Light Snow,160,2013-02-12 07:14:00
1:23 AM,32.0,28.4,87,30.07,3.0,SSE,11.5,-,0.02,Snow,Light Snow,160,2013-02-12 07:23:00
1:31 AM,32.0,28.4,87,30.07,2.0,SSE,9.2,-,0.02,Snow,Light Snow,160,2013-02-12 07:31:00
1:38 AM,32.0,28.4,87,30.06,2.0,SSE,6.9,-,0.03,Snow,Light Snow,160,2013-02-12 07:38:00
1:53 AM,32.0,30.0,92,30.07,2.5,SSE,6.9,-,0.03,Snow,Light Snow,160,2013-02-12 07:53:00
2:14 AM,32.0,30.2,93,30.06,2.5,South,4.6,-,0.01,Snow,Light Snow,170,2013-02-12 08:14:00
2:32 AM,32.0,30.2,93,30.06,1.5,SW,3.5,-,0.02,Snow,Light Snow,230,2013-02-12 08:32:00
2:50 AM,32.0,30.2,93,30.05,1.0,Calm,Calm,-,0.05,Snow,Light Snow,0,2013-02-12 08:50:00
2:53 AM,32.0,30.0,92,30.06,1.0,Calm,Calm,-,0.06,Snow,Light Snow,0,2013-02-12 08:53:00
3:06 AM,32.0,30.2,93,30.04,0.8,Calm,Calm,-,0.03,Snow,Light Snow,0,2013-02-12 09:06:00
3:17 AM,32.0,30.2,93,30.04,1.0,Calm,Calm,-,0.06,Snow,Light Snow,0,2013-02-12 09:17:00
3:34 AM,32.0,30.2,93,30.03,1.2,Calm,Calm,-,0.07,Snow,Light Snow,0,2013-02-12 09:34:00
3:53 AM,32.0,30.0,92,30.03,1.2,North,3.5,-,0.09,Snow,Light Snow,360,2013-02-12 09:53:00
4:03 AM,32.0,30.2,93,30.02,1.5,NNW,3.5,-,0.01,Snow,Light Snow,340,2013-02-12 10:03:00
4:15 AM,32.0,30.2,93,30.01,1.8,NNE,4.6,-,0.02,Snow,Light Snow,20,2013-02-12 10:15:00
4:40 AM,30.2,30.2,100,30.02,2.0,North,3.5,-,0.03,Snow,Light Snow,360,2013-02-12 10:40:00
4:51 AM,32.0,30.2,93,30.01,1.8,NNE,3.5,-,0.04,Snow,Light Snow,30,2013-02-12 10:51:00
4:53 AM,32.0,30.0,92,30.02,1.8,NNE,3.5,-,0.04,Snow,Light Snow,30,2013-02-12 10:53:00
5:05 AM,32.0,30.2,93,30.01,1.5,NNE,3.5,-,0.01,Snow,Light Snow,20,2013-02-12 11:05:00
5:44 AM,30.2,30.2,100,30.00,1.5,NE,3.5,-,0.04,Snow,Light Snow,50,2013-02-12 11:44:00
5:53 AM,30.9,30.0,96,30.01,1.8,Calm,Calm,-,0.05,Snow,Light Snow,0,2013-02-12 11:53:00
6:01 AM,30.2,30.2,100,30.01,2.5,Calm,Calm,-,0.00,Snow,Light Snow,0,2013-02-12 12:01:00
6:53 AM,30.9,30.0,96,30.02,3.0,NNE,8.1,-,0.02,Snow,Light Snow,20,2013-02-12 12:53:00
7:02 AM,30.2,30.2,100,30.01,2.0,NNE,6.9,-,0.00,Snow,Light Snow,30,2013-02-12 13:02:00
7:23 AM,30.2,30.2,100,30.01,2.5,NNE,8.1,-,0.01,Snow,Light Snow,20,2013-02-12 13:23:00
7:49 AM,30.2,30.2,100,30.01,1.5,NE,5.8,-,0.02,Snow,Light Snow,40,2013-02-12 13:49:00
7:53 AM,30.9,30.0,96,30.03,1.0,NE,6.9,-,0.02,Snow,Light Snow,40,2013-02-12 13:53:00
8:32 AM,30.2,30.2,100,30.03,1.5,NE,5.8,-,0.02,Snow,Light Snow,50,2013-02-12 14:32:00
8:39 AM,30.2,30.2,100,30.03,2.0,ENE,5.8,-,0.02,Snow,Light Snow,60,2013-02-12 14:39:00
8:53 AM,30.9,30.0,96,30.05,2.0,ENE,4.6,-,0.02,Snow,Light Snow,60,2013-02-12 14:53:00
9:03 AM,32.0,30.2,93,30.03,1.8,ENE,5.8,-,0.00,Snow,Light Snow,60,2013-02-12 15:03:00
9:39 AM,32.0,30.2,93,30.04,1.5,NE,4.6,-,0.02,Snow,Light Snow,50,2013-02-12 15:39:00
9:53 AM,32.0,30.0,92,30.05,1.5,NE,3.5,-,0.02,Snow,Light Snow,50,2013-02-12 15:53:00
10:53 AM,33.1,30.9,92,30.06,1.2,NNE,4.6,-,0.02,Snow,Light Snow,30,2013-02-12 16:53:00
11:07 AM,33.8,30.2,87,30.05,2.0,NE,3.5,-,0.01,Snow,Light Snow,40,2013-02-12 17:07:00
11:27 AM,33.8,30.2,87,30.05,2.5,North,4.6,-,0.01,Snow,Light Snow,360,2013-02-12 17:27:00
11:39 AM,33.8,30.2,87,30.06,3.0,North,3.5,-,0.02,Snow,Light Snow,10,2013-02-12 17:39:00
11:50 AM,33.8,30.2,87,30.06,4.0,North,5.8,-,0.02,Snow,Light Snow,360,2013-02-12 17:50:00
11:53 AM,33.1,30.9,92,30.07,4.0,North,4.6,-,0.02,Snow,Light Snow,350,2013-02-12 17:53:00
12:20 PM,33.8,30.2,87,30.05,9.0,NNW,5.8,-,0.00,,Overcast,340,2013-02-12 18:20:00
12:53 PM,33.1,28.9,85,30.07,10.0,NNW,9.2,-,0.00,,Overcast,340,2013-02-12 18:53:00
1:53 PM,34.0,26.1,73,30.05,10.0,NNW,5.8,-,N/A,,Overcast,340,2013-02-12 19:53:00
2:53 PM,35.1,28.9,78,30.03,10.0,North,5.8,-,N/A,,Overcast,360,2013-02-12 20:53:00
3:20 PM,35.6,28.4,75,30.01,10.0,NE,3.5,-,N/A,,Scattered Clouds,40,2013-02-12 21:20:00
3:53 PM,35.1,30.0,82,30.02,10.0,ENE,5.8,-,N/A,,Clear,70,2013-02-12 21:53:00
4:53 PM,34.0,30.0,85,30.02,10.0,SE,6.9,-,N/A,,Clear,140,2013-02-12 22:53:00
5:53 PM,32.0,28.9,88,30.02,10.0,South,6.9,-,N/A,,Clear,180,2013-02-12 23:53:00
6:53 PM,28.9,26.1,89,30.05,10.0,SW,8.1,-,N/A,,Clear,220,2013-02-13 00:53:00
7:53 PM,27.0,24.1,89,30.07,10.0,WSW,13.8,-,N/A,,Clear,240,2013-02-13 01:53:00
8:53 PM,26.1,21.0,81,30.07,10.0,WSW,11.5,-,N/A,,Clear,240,2013-02-13 02:53:00
9:53 PM,27.0,21.0,78,30.07,10.0,West,13.8,-,N/A,,Clear,260,2013-02-13 03:53:00
10:53 PM,27.0,21.9,81,30.06,10.0,WSW,12.7,-,N/A,,Clear,240,2013-02-13 04:53:00
11:53 PM,27.0,18.0,69,30.06,10.0,West,9.2,-,N/A,,Clear,270,2013-02-13 05:53:00